DW3793 Weather Reports


Display with metric or nautical units.
time (UTC)temp
F
wind
direction
speed
MPH
gust
MPH
rain 1hr
in
rain 24hr
in
rain mn
in
humidity
%
barometer
mb
20260902154519 60 355 1.0 4.0 0.00 0.00 0.00 59 1011.0
20260902153020 59 66 0.0 1.0 0.00 0.00 0.00 61 1010.9
20260902151507 58 293 0.0 1.0 0.00 0.00 0.00 63 1010.8
20260902150004 56 293 0.0 3.0 0.00 0.00 0.00 67 1010.9
20260902144503 56 248 0.0 1.0 0.00 0.00 0.00 66 1010.9
20260902143000 55 248 0.0 4.0 0.00 0.00 0.00 68 1011.0
20260902141555 55 248 0.0 3.0 0.00 0.00 0.00 69 1010.9
20260902140051 55 248 0.0 0.0 0.00 0.00 0.00 69 1010.8
20260902134603 56 248 0.0 2.0 0.00 0.00 0.00 68 1011.0
20260902133051 56 157 3.0 9.0 0.00 0.00 0.00 69 1010.9
20260902131549 56 23 5.0 14.0 0.00 0.00 0.00 68 1010.3
20260902130051 57 248 2.0 5.0 0.00 0.00 0.00 68 1009.8
20260902124543 57 296 2.0 8.0 0.00 0.00 0.00 65 1011.1
20260902123041 57 234 1.0 8.0 0.00 0.00 0.00 64 1011.4
20260902121535 57 49 1.0 10.0 0.00 0.00 0.00 64 1011.0
20260902120038 57 80 0.0 6.0 0.00 0.00 0.00 62 1010.4
20260902114534 56 14 0.0 2.0 0.00 0.00 0.00 64 1010.2
20260902113031 56 355 2.0 5.0 0.00 0.00 0.00 65 1010.3
20260902111528 56 263 0.0 3.0 0.00 0.00 0.00 66 1010.7
20260902110027 56 318 0.0 2.0 0.00 0.00 0.00 66 1010.8
20260902104524 55 342 1.0 8.0 0.00 0.00 0.00 68 1010.8
20260902103024 55 284 0.0 2.0 0.00 0.00 0.00 67 1010.6
20260902101553 55 279 0.0 3.0 0.00 0.00 0.00 65 1010.5
20260902100107 55 335 1.0 3.0 0.00 0.00 0.00 64 1010.5
20260902094549 55 302 0.0 3.0 0.00 0.00 0.00 65 1010.3
20260902093048 54 294 0.0 4.0 0.00 0.00 0.00 65 1010.1
20260902091605 55 302 1.0 3.0 0.00 0.00 0.00 63 1010.2
20260902090045 55 284 2.0 4.0 0.00 0.00 0.00 64 1010.4
20260902084514 54 323 1.0 3.0 0.00 0.00 0.00 66 1010.5
20260902083013 54 328 0.0 2.0 0.00 0.00 0.00 66 1010.5
20260902081511 53 292 1.0 5.0 0.00 0.00 0.00 67 1010.5
20260902080010 54 314 1.0 3.0 0.00 0.00 0.00 66 1010.3
20260902070033 57 334 0.0 1.0 0.00 0.00 0.00 62 1009.6
20260902064533 59 332 0.0 2.0 0.00 0.00 0.00 59 1009.7
20260902063041 61 251 0.0 3.0 0.00 0.00 0.00 56 1009.8
20260902061541 62 267 0.0 2.0 0.00 0.00 0.00 55 1009.7
20260902060033 62 256 1.0 5.0 0.00 0.00 0.00 55 1009.6
20260902054538 62 309 1.0 5.0 0.00 0.00 0.00 56 1009.4
20260902053028 61 317 0.0 5.0 0.00 0.00 0.00 57 1009.3
20260902051530 62 337 1.0 4.0 0.00 0.00 0.00 56 1009.2
20260902050032 62 293 2.0 8.0 0.00 0.00 0.00 55 1009.1
20260902044529 62 333 1.0 3.0 0.00 0.00 0.00 55 1009.0
20260902043023 63 323 1.0 3.0 0.00 0.00 0.00 55 1008.9
20260902041531 64 302 0.0 2.0 0.00 0.00 0.00 53 1008.7
20260902040020 64 277 0.0 4.0 0.00 0.00 0.00 52 1008.7
20260902034527 66 331 1.0 4.0 0.00 0.00 0.00 51 1008.6
20260902034525 66 334 1.0 4.0 0.00 0.00 0.00 51 1008.6
20260902033018 67 303 1.0 4.0 0.00 0.00 0.00 49 1008.5
20260902031518 69 216 1.0 9.0 0.00 0.00 0.00 46 1008.3
20260902030015 72 87 13.0 20.0 0.00 0.00 0.00 42 1007.6
20260902024615 73 72 7.0 15.0 0.00 0.00 0.00 38 1007.2
20260902023018 75 318 2.0 11.0 0.00 0.00 0.00 34 1006.7
20260902021520 76 331 2.0 5.0 0.00 0.00 0.00 32 1006.6
20260902020011 78 328 3.0 8.0 0.00 0.00 0.00 31 1006.7
20260902014509 79 323 3.0 11.0 0.00 0.00 0.00 30 1006.8
20260902013007 80 317 5.0 10.0 0.00 0.00 0.00 29 1007.1
20260902011509 80 317 6.0 14.0 0.00 0.00 0.00 29 1007.1
20260902010007 81 277 6.0 19.0 0.00 0.00 0.00 29 1007.0
20260902004503 81 334 7.0 13.0 0.00 0.00 0.00 29 1007.1
20260902003001 81 292 4.0 19.0 0.00 0.00 0.00 28 1007.3
20260902001601 81 34 5.0 16.0 0.00 0.00 0.00 28 1007.6
20260902000055 82 305 7.0 20.0 0.00 0.00 0.00 27 1007.7
20260901234553 82 273 7.0 14.0 0.00 0.00 0.00 28 1007.8
20260901233059 82 298 4.0 12.0 0.00 0.00 0.00 30 1008.0
20260901231555 81 325 7.0 14.0 0.00 0.00 0.00 31 1008.1
20260901230044 79 294 4.0 15.0 0.00 0.00 0.00 32 1008.3
20260901224544 80 340 6.0 13.0 0.00 0.00 0.00 31 1008.4
20260901223049 78 317 3.0 10.0 0.00 0.00 0.00 33 1008.7
20260901221537 78 360 5.0 13.0 0.00 0.00 0.00 33 1008.9
20260901220033 78 331 5.0 12.0 0.00 0.00 0.00 34 1008.9
20260901214531 78 9 5.0 12.0 0.00 0.00 0.00 37 1009.1
20260901213034 76 71 2.0 5.0 0.00 0.00 0.00 44 1009.2
20260901211529 74 46 5.0 12.0 0.00 0.00 0.00 45 1009.3
20260901210035 75 9 2.0 9.0 0.00 0.00 0.00 44 1009.6
20260901204527 75 261 0.0 9.0 0.00 0.00 0.00 43 1009.1
20260901203021 75 290 4.0 11.0 0.00 0.00 0.00 41 1009.8
20260901201520 74 294 5.0 10.0 0.00 0.00 0.00 44 1009.9
20260901200037 74 325 5.0 10.0 0.00 0.00 0.00 44 1009.8
20260901194515 73 263 6.0 16.0 0.00 0.00 0.00 45 1009.7
20260901193014 73 313 4.0 10.0 0.00 0.00 0.00 45 1010.1
20260901191520 72 63 4.0 16.0 0.00 0.00 0.00 47 1010.7
20260901190047 72 281 9.0 15.0 0.00 0.00 0.00 46 1010.9
20260901184542 72 324 6.0 14.0 0.00 0.00 0.00 49 1011.2
20260901183013 73 279 8.0 18.0 0.00 0.00 0.00 44 1011.5
20260901181510 74 292 12.0 30.0 0.00 0.00 0.00 40 1011.7
20260901180018 70 333 9.0 18.0 0.00 0.00 0.00 44 1011.4
20260901174504 68 63 1.0 4.0 0.00 0.00 0.00 41 1010.8
20260901173003 70 161 5.0 8.0 0.00 0.00 0.00 36 1010.5
20260901171502 72 130 4.0 11.0 0.00 0.00 0.00 33 1010.4
20260901170156 75 294 3.0 14.0 0.00 0.00 0.00 38 1009.9
20260901164554 74 26 3.0 10.0 0.00 0.00 0.00 40 1009.9
20260901163049 69 51 5.0 15.0 0.00 0.00 0.00 44 1010.0
20260901161602 63 215 4.0 6.0 0.00 0.00 0.00 40 1010.4
20260901160040 62 46 1.0 4.0 0.00 0.00 0.00 43 1010.7